This demonstration page uses our WeatherBlox Daily Observations layout. Learn more.

Left ArrowRight Arrow

Hourly Observations for June 18, 2021

Temp ( °F °C ) Dew Point ( °F °C ) Humidity (%) Winds ( mph kmh ) Pressure ( in mb ) Visibility ( mi km ) Precip ( " mm )
12:51 am 00:51 Clear 83 28.3 27 -2.8 13 13 E 8 13 29.70 1006 10 16 N/A
1:51 am 01:51 Clear 81 27.2 26 -3.3 13 13 E 7 11 29.70 1006 10 16 N/A
2:51 am 02:51 Clear 78 25.6 26 -3.3 15 15 ESE 6 9 29.70 1006 10 16 N/A
3:51 am 03:51 Clear 76 24.4 26 -3.3 16 16 E 9 15 29.71 1006 10 16 N/A
4:51 am 04:51 Clear 76 24.4 28 -2.2 17 17 SSE 8 13 29.72 1007 10 16 N/A
5:51 am 05:51 Sunny 76 24.4 28 -2.2 17 17 SSE 8 13 29.73 1007 10 16 N/A
6:51 am 06:51 Sunny 87 30.6 29 -1.7 12 12 ESE 10 17 29.73 1007 10 16 N/A
7:10 am 07:10 Hazy 89 31.7 29 -1.7 11 11 ESE 12 19 29.68 1005 3 4 N/A
7:19 am 07:19 Sunny 89 31.7 29 -1.7 11 11 SE 10 17 29.68 1005 10 16 N/A
7:51 am 07:51 Sunny 92 33.3 32 undefined 12 12 ESE 13 20 29.73 1007 10 16 N/A
8:51 am 08:51 Sunny 95 35 34 1.1 12 12 ESE 12 19 29.73 1007 10 16 N/A
9:51 am 09:51 Mostly Sunny 98 36.7 36 2.2 11 11 SSE 8 13 29.72 1006 10 16 N/A
10:51 am 10:51 Mostly Sunny 99 37.2 36 2.2 11 11 S 10 17 29.70 1006 10 16 N/A
11:51 am 11:51 Sunny 102 38.9 35 1.7 10 10 ESE 13 20 29.66 1005 10 16 N/A
12:51 pm 12:51 Mostly Sunny 105 40.6 35 1.7 9 9 N N/A 29.64 1004 10 16 N/A
1:51 pm 13:51 Cloudy 106 41.1 34 1.1 8 8 VRB 7 11 29.61 1003 10 16 N/A
2:51 pm 14:51 Cloudy 107 41.7 33 0.6 8 8 S 8 13 29.57 1002 10 16 N/A
3:51 pm 15:51 Cloudy 106 41.1 33 0.6 8 8 undefined N/A 29.55 1001 10 16 N/A
4:51 pm 16:51 Mostly Cloudy 106 41.1 33 0.6 8 8 VRB 3 6 29.53 1000 10 16 N/A
5:51 pm 17:51 Mostly Cloudy 106 41.1 32 undefined 8 8 S 6 9 29.53 1000 10 16 N/A
6:51 pm 18:51 Mostly Cloudy 104 40 31 -0.6 8 8 SSW 8 13 29.52 1000 10 16 N/A
7:51 pm 19:51 Partly Cloudy 99 37.2 30 -1.1 9 9 S 7 11 29.54 1000 10 16 N/A
8:51 pm 20:51 Mostly Cloudy 94 34.4 28 -2.2 9 9 SSW 5 7 29.56 1001 10 16 N/A
9:51 pm 21:51 Partly Cloudy 92 33.3 26 -3.3 9 9 S 6 9 29.59 1002 10 16 N/A
10:51 pm 22:51 Mostly Clear 89 31.7 26 -3.3 10 10 S 12 19 29.59 1002 10 16 N/A
11:51 pm 23:51 Clear 86 30 25 -3.9 11 11 S 3 6 29.60 1002 10 16 N/A

Powered by AerisWeather